Find Starlink 31162

NORAD ID: 58791 Int'l Des: 2024-012 Owner: SPXS Country: US Constellation: starlink operational
LEOCIRCULAR

現在のビュー

3D地球を読み込み中...

About Starlink 31162

Starlink 31162 (NORAD 58791) is a starlink constellation satellite (v2 mini) launched Jan 15, 2024 by SPXS of US. It operates in LEO, CIRCULAR orbit with a mass of 730.00 kg.

Starlink 31162について

説明を読み込み中...

次回通過

Passes for default location (London). Set your location on the main map for personalized predictions.

高度履歴

Loading altitude history...

軌道要素

1 58791U 24012E 26177.59586217 -.00000909 00000-0 -23513-4 0 9993
2 58791 43.0035 270.0555 0001202 280.3215 79.7501 15.27569442137899
Epoch: Jun 26, 2026 • Age: 11 hours

現在のステータス

高度 484.8 km
速度 7.63 km/s
衛星直下点 33.43°N, 14.2°E
打ち上げ日 Jan 15, 2024
運用期間 2.4 years
タイプ internet

技術仕様

分類 Payload
質量 730.00 kg
乾燥質量 700.00 kg
総質量 730.00 kg
長さ 0.30 m
直径 4.10 m
スパン 29.00 m
形状 Box + pan
製造者 SPXS
バスタイプ Starlink V2M
フェーズステータス In Orbit
所有者/国 SPXS/US

Most Searched